Date String (YYYY-MM-DD hh:mm:ss) UTC,Instrument flags,Ambient pressure (hPa),Sample flow (lpm),Bypass flow (lpm),Sample temperature (°C),Ambient temperature (°C),ASC tube jacket temperature (°C),LED temperature (°C),Box temperature (°C),Sample RH (%),Mass concentration (μg/m³),Mass concentration (μg/m³)
DateTimeUTC,F1_M11,P_M11,Q1_M11,Q2_M11,T1_M11,T2_M11,T3_M11,T4_M11,T5_M11,U1_M11,X0_M11,X2_M11
2021-08-17 15:00:00,,0825.2,5.00,0.00,29.6,27.6,00.0,38.8,31.3,19.3,0032.18,0021.55
2021-08-17 15:01:00,,0825.2,4.99,0.00,29.7,27.9,00.0,38.8,31.4,20.0,0032.16,0021.49
2021-08-17 15:02:00,,0825.2,5.00,0.00,29.7,28.2,00.0,38.8,31.5,20.2,0032.42,0021.38
2021-08-17 15:03:00,,0825.1,4.99,0.00,29.7,28.4,00.0,38.8,31.5,20.9,0031.70,0021.30
2021-08-17 15:04:00,,0825.2,5.02,0.00,29.8,28.5,00.0,38.8,31.6,21.4,0031.37,0021.21
2021-08-17 15:05:00,,0825.2,4.99,0.00,29.8,28.7,00.0,38.8,31.7,21.5,0031.05,0021.11
2021-08-17 15:06:00,,0825.2,5.01,0.00,29.8,28.8,00.0,38.8,31.7,21.3,0030.03,0021.03
2021-08-17 15:07:00,,0825.2,5.02,0.00,29.9,28.9,00.0,38.8,31.8,21.1,0029.36,0021.02
2021-08-17 15:08:00,,0825.3,5.00,0.00,29.9,28.6,00.0,38.9,31.7,21.1,0029.55,0021.00
2021-08-17 15:09:00,,0825.2,5.01,0.00,29.8,27.0,00.0,38.8,31.2,21.0,0030.00,0020.97
2021-08-17 15:10:00,,0825.2,5.00,0.00,29.7,26.4,00.0,38.8,31.0,21.8,0029.36,0020.94
2021-08-17 15:11:00,,0825.2,5.01,0.00,29.6,26.8,00.0,38.8,31.1,21.8,0028.39,0020.88
2021-08-17 15:12:00,,0825.2,5.00,0.00,29.6,27.2,00.0,38.8,31.2,21.7,0028.46,0020.91
2021-08-17 15:13:00,,0825.2,5.00,0.00,29.6,27.5,00.0,38.7,31.3,22.2,0028.22,0020.97
2021-08-17 15:14:00,,0825.2,4.99,0.00,29.6,27.8,00.0,38.7,31.4,21.9,0028.24,0020.99
2021-08-17 15:15:00,,0825.2,5.01,0.00,29.6,28.1,00.0,38.7,31.4,22.2,0029.10,0020.98
2021-08-17 15:16:00,,0825.2,5.00,0.00,29.7,28.3,00.0,38.7,31.5,21.8,0028.82,0020.97
2021-08-17 15:17:00,,0825.2,5.00,0.00,29.7,28.5,00.0,38.7,31.6,21.9,0028.97,0020.98
2021-08-17 15:18:00,,0825.2,5.00,0.00,29.8,28.7,00.0,38.8,31.6,21.5,0029.28,0020.98
2021-08-17 15:19:00,,0825.1,5.01,0.00,29.8,28.8,00.0,38.8,31.7,21.4,0029.03,0020.94
2021-08-17 15:20:00,,0825.2,4.99,0.00,29.8,28.9,00.0,38.8,31.8,21.4,0028.59,0020.94
2021-08-17 15:21:00,,0825.1,5.00,0.00,29.9,28.3,00.0,38.8,31.6,21.6,0028.57,0020.91
2021-08-17 15:22:00,,0825.1,5.00,0.00,29.7,26.7,00.0,38.8,31.1,21.8,0028.57,0020.91
2021-08-17 15:23:00,,0825.1,5.00,0.00,29.6,26.5,00.0,38.8,31.0,22.4,0028.38,0020.89
2021-08-17 15:24:00,,0825.1,5.01,0.00,29.6,26.9,00.0,38.8,31.1,22.9,0028.66,0020.85
2021-08-17 15:25:00,,0825.1,5.00,0.00,29.6,27.3,00.0,38.7,31.2,22.6,0028.95,0020.85
2021-08-17 15:26:00,,0825.2,4.98,0.00,29.6,27.6,00.0,38.7,31.3,22.4,0028.07,0020.86
2021-08-17 15:27:00,,0825.1,5.00,0.00,29.6,27.9,00.0,38.7,31.4,23.0,0028.12,0020.88
2021-08-17 15:28:00,,0825.2,5.01,0.00,29.6,28.2,00.0,38.7,31.5,22.9,0028.20,0020.95
2021-08-17 15:29:00,,0825.2,4.99,0.00,29.7,28.4,00.0,38.7,31.5,22.3,0028.48,0021.01
2021-08-17 15:30:00,,0825.2,5.01,0.00,29.7,28.6,00.0,38.7,31.6,21.9,0030.25,0021.09
2021-08-17 15:31:00,,0825.2,4.99,0.00,29.8,28.7,00.0,38.7,31.7,21.8,0031.62,0021.17
2021-08-17 15:32:00,,0825.2,5.01,0.00,29.8,28.5,00.0,38.8,31.6,21.7,0032.92,0021.28
2021-08-17 15:33:00,,0825.2,5.00,0.00,29.7,26.8,00.0,38.8,31.1,21.7,0033.66,0021.36
2021-08-17 15:34:00,,0825.2,5.00,0.00,29.5,26.3,00.0,38.7,30.9,21.8,0034.14,0021.48
2021-08-17 15:35:00,,0825.1,5.01,0.00,29.5,26.7,00.0,38.7,31.0,22.5,0034.65,0021.63
2021-08-17 15:36:00,,0825.2,5.00,0.00,29.5,27.1,00.0,38.7,31.1,22.4,0036.46,0021.67
2021-08-17 15:37:00,,0825.2,5.00,0.00,29.5,27.5,00.0,38.6,31.2,22.5,0036.87,0021.71
2021-08-17 15:38:00,,0825.1,5.01,0.00,29.5,27.8,00.0,38.6,31.3,22.8,0036.87,0021.76
2021-08-17 15:39:00,,0825.1,4.99,0.00,29.6,28.1,00.0,38.6,31.4,22.6,0036.87,0021.78
2021-08-17 15:40:00,,0825.1,5.01,0.00,29.6,28.3,00.0,38.6,31.5,22.1,0036.93,0021.83
2021-08-17 15:41:00,,0825.1,5.00,0.00,29.6,28.5,00.0,38.7,31.5,22.0,0035.73,0021.84
2021-08-17 15:42:00,,0825.1,4.99,0.00,29.7,28.6,00.0,38.7,31.6,21.7,0034.81,0021.84
2021-08-17 15:43:00,,0825.1,5.00,0.00,29.7,27.9,00.0,38.7,31.4,21.7,0034.01,0021.91
2021-08-17 15:44:00,,0825.1,5.00,0.00,29.6,26.3,00.0,38.7,30.9,21.7,0033.62,0021.95
2021-08-17 15:45:00,,0825.1,5.00,0.00,29.5,26.4,00.0,38.7,30.9,21.7,0034.07,0021.96
2021-08-17 15:46:00,,0825.1,5.00,0.00,29.4,26.8,00.0,38.6,31.0,21.8,0033.41,0021.95
2021-08-17 15:47:00,,0825.1,5.01,0.00,29.4,27.2,00.0,38.6,31.1,22.1,0031.41,0021.98
2021-08-17 15:48:00,,0825.0,4.98,0.00,29.4,27.5,00.0,38.6,31.2,21.9,0030.90,0022.00
2021-08-17 15:49:00,,0825.1,5.01,0.00,29.5,27.8,00.0,38.6,31.3,21.6,0031.05,0022.04
2021-08-17 15:50:00,,0825.1,4.99,0.00,29.5,28.1,00.0,38.6,31.3,21.6,0031.07,0022.05
2021-08-17 15:51:00,,0825.1,5.01,0.00,29.6,28.3,00.0,38.6,31.4,22.1,0030.95,0022.02
2021-08-17 15:52:00,,0825.1,4.99,0.00,29.6,28.5,00.0,38.6,31.5,22.6,0031.33,0022.12
2021-08-17 15:53:00,,0825.1,5.01,0.00,29.6,28.0,00.0,38.6,31.3,22.6,0031.75,0022.16
2021-08-17 15:54:00,,0825.1,5.00,0.00,29.5,26.4,00.0,38.6,30.8,22.0,0032.36,0022.11
2021-08-17 15:55:00,,0825.1,5.00,0.00,29.4,26.2,00.0,38.6,30.7,21.8,0032.28,0022.08
2021-08-17 15:56:00,,0825.1,5.00,0.00,29.3,26.6,00.0,38.5,30.9,22.4,0032.38,0022.11
2021-08-17 15:57:00,,0825.1,5.00,0.00,29.3,27.0,00.0,38.5,31.0,22.4,0032.48,0022.12
2021-08-17 15:58:00,,0825.2,5.00,0.00,29.3,27.4,00.0,38.5,31.1,22.4,0032.77,0022.15
2021-08-17 15:59:00,,0825.2,4.98,0.00,29.4,27.7,00.0,38.5,31.2,23.1,0033.25,0022.30
